Location: Proctor
(47.8934°N, 114.3048°W)
Time: 19:37:39
(UTC+00:00)

Vanguard 2 Rocket - Pass Details

Date: 22 June 2024
Orbit: 555 x 3302 km, 32.9° (Epoch: 22 July)

Event Time Altitude Azimuth Distance (km) Brightness Sun altitude
Exits shadow 06:49:35 12° 138° (SE) 5,940 10.5 -17.8°
Maximum altitude 06:52:14 12° 130° (SE) 5,971 10.6 -17.9°
Drops below altitude 10° 06:58:35 10° 111° (ESE) 6,257 10.9 -18.1°
Sets 07:08:10 0° 88° (E) 7,143 11.4 -18.3°
